Theta_e
306 305 305 305 306 306 306 306 306 307 307 307 309 309 310 310 310 311 311 310 321 321 309 308 309 314 318 322 326 328 330 330 331
305 305 306 306 306 307 307 306 306 306 306 307 309 311 312 311 310 311 313 314 322 322 317 309 309 309 309 309 309 311 317 326 329
307 307 307 307 307 307 307 307 307 308 307 308 310 311 311 310 311 313 311 315 322 323 320 311 309 309 309 309 309 309 308 311 317
307 307 307 307 307 307 307 307 307 307 308 309 311 311 312 312 312 313 310 311 323 315 314 318 319 317 312 309 309 310 310 310 309
307 307 307 307 307 307 307 307 307 307 308 308 310 310 311 311 312 312 310 313 323 324 324 325 324 324 322 320 315 314 312 313 312
307 307 307 307 307 307 308 308 307 307 307 307 308 309 310 312 312 312 316 324 323 324 321 322 322 322 324 324 324 323 323 323 322
307 307 307 307 307 307 307 307 307 307 307 307 307 308 310 311 312 313 313 320 321 321 319 317 318 321 323 324 324 325 324 322 319
307 307 307 307 307 307 306 306 306 306 306 306 307 307 309 311 311 313 314 312 316 319 319 319 319 320 321 323 323 323 324 322 320
307 307 307 307 307 307 306 306 306 305 305 306 306 307 308 310 312 314 314 313 313 312 313 314 319 319 321 319 320 320 320 319 319
307 307 307 307 307 306 306 306 305 305 305 306 306 307 308 309 313 313 313 312 311 311 312 312 312 313 317 317 317 317 316 316 316
307 307 307 307 307 307 306 305 305 304 305 306 308 308 309 312 315 312 311 311 311 310 310 311 311 310 311 317 316 315 312 312 313
307 307 307 307 307 306 306 305 304 304 305 306 309 311 313 314 313 312 312 310 309 308 309 309 307 307 306 308 312 312 306 306 307
307 307 306 306 306 306 306 306 305 305 304 305 307 309 312 313 312 310 311 309 307 304 302 302 303 303 304 304 306 305 305 305 305
306 306 306 306 306 306 307 306 306 305 305 305 306 307 308 308 307 307 306 305 303 301 301 300 301 302 303 304 305 305 305 304 303
306 306 306 306 306 306 306 306 306 306 306 306 306 308 310 310 305 306 305 304 303 303 301 300 301 301 302 303 303 303 302 301 301
305 305 306 305 305 306 306 306 306 306 306 305 306 307 308 311 305 307 306 305 304 304 303 303 302 301 300 300 301 301 300 298 298
305 305 305 305 305 305 305 305 305 305 305 305 305 305 307 309 305 306 307 305 304 304 302 302 302 302 301 300 300 300 299 298 297
305 304 305 304 304 304 304 304 304 304 304 304 303 304 303 304 305 305 306 303 304 302 301 302 302 301 301 301 301 299 299 298 297
304 304 304 304 304 303 303 303 303 302 303 303 302 302 302 303 303 304 304 303 303 302 303 302 302 301 301 301 301 301 300 298 297
304 303 303 303 303 302 302 301 301 301 301 302 302 302 301 301 302 303 303 303 304 304 304 304 303 302 300 301 301 301 300 300 298
Wind_Speed
13 14 13 13 13 13 12 12 12 12 11 10 9 8 5 5 5 5 6 6 7 4 3 4 6 8 10 10 9 9 8 8 9
14 14 14 13 13 13 12 12 12 11 11 10 8 7 4 4 6 6 5 4 6 6 6 4 4 6 8 9 10 11 11 11 8
13 13 12 12 11 11 10 10 11 10 10 10 9 5 5 6 6 8 8 7 8 8 7 8 8 8 8 7 7 8 9 11 12
12 11 10 10 9 9 8 9 8 8 7 6 5 4 5 5 7 8 7 6 8 9 12 12 12 11 10 8 7 7 7 8 9
10 9 9 8 8 8 8 8 8 7 5 5 3 3 5 5 7 7 7 8 12 10 9 9 9 10 10 10 8 7 7 7 7
7 8 8 7 7 7 7 6 6 5 4 3 2 1 3 5 5 6 8 7 5 4 2 2 5 8 9 8 8 7 8 7 7
7 8 8 7 7 7 6 5 5 4 4 4 2 1 2 3 5 5 3 3 3 4 6 4 3 3 6 6 6 5 4 7 11
6 7 7 7 7 6 6 5 5 4 4 3 2 2 2 3 4 4 3 1 4 4 4 6 6 3 3 4 5 4 6 6 7
5 6 6 6 6 6 6 6 6 6 5 4 2 2 2 3 5 6 7 2 3 5 4 5 7 6 5 6 8 8 7 9 8
4 5 6 6 7 7 7 7 7 7 6 6 4 2 3 3 4 7 5 4 4 5 5 6 7 5 5 6 9 9 9 10 10
3 4 6 7 7 8 8 8 8 8 7 7 7 4 2 1 3 6 5 6 6 8 7 8 9 8 7 5 6 8 9 8 9
2 4 5 5 7 8 8 8 8 7 6 6 6 6 3 1 5 6 6 7 8 8 9 10 10 9 8 8 7 8 11 10 10
2 3 4 5 6 7 7 7 8 8 6 6 5 5 2 4 7 6 6 8 9 11 11 11 10 9 9 9 9 11 12 12 12
1 2 3 4 5 5 6 7 8 9 8 6 4 4 4 3 4 5 6 8 10 12 11 11 11 10 9 9 10 11 12 12 13
1 0 2 3 4 5 6 7 8 8 8 7 4 2 2 2 6 5 7 8 10 12 12 14 13 12 11 11 11 12 12 13 12
2 1 2 3 4 5 6 6 7 8 8 7 6 4 4 3 8 4 6 7 8 10 13 16 15 15 14 14 13 13 13 14 13
3 3 3 3 5 5 6 7 7 8 9 9 8 5 6 4 7 5 5 8 11 13 17 17 15 19 17 15 14 15 14 15 14
5 3 4 5 6 6 7 7 8 8 9 9 7 4 4 14 6 8 7 11 11 17 18 16 18 19 16 17 16 17 17 17 17
5 5 6 6 7 8 8 9 9 9 9 8 9 8 9 6 8 9 10 16 14 18 16 16 18 16 17 17 18 17 19 19 19
6 6 7 7 8 8 9 10 10 10 10 10 10 10 10 11 12 20 22 22 20 20 20 20 19 20 21 18 18 20 21 20 21
Wind_Direction
75 74 73 72 71 71 70 71 70 71 75 80 85 81 73 64 69 63 51 54 50 39 291 292 272 268 270 275 282 285 292 289 287
79 78 77 76 75 74 73 73 73 74 79 85 95 89 82 67 75 59 48 69 48 30 16 1 327 308 299 293 285 275 270 272 282
82 80 79 79 78 76 76 75 74 75 84 94 99 96 66 56 55 42 34 47 35 28 22 14 5 351 337 326 314 299 282 270 268
83 80 79 76 74 71 68 69 68 69 75 89 96 74 65 41 38 27 27 39 39 29 37 33 27 19 5 350 334 325 313 301 287
80 76 70 64 59 59 56 55 61 67 60 65 84 49 42 34 30 25 38 38 50 45 59 43 35 20 20 22 14 359 331 339 325
73 65 61 58 52 49 48 46 48 51 48 57 62 36 20 27 31 32 68 75 74 28 2 44 43 33 25 25 19 27 23 11 11
71 71 63 61 57 52 50 43 42 38 37 30 8 345 345 360 12 26 74 111 45 2 346 329 324 37 25 34 40 43 22 353 338
67 68 64 59 54 49 39 31 30 25 30 26 351 318 320 331 352 8 8 277 56 31 10 23 40 24 4 348 322 321 17 330 311
69 66 63 57 51 43 31 26 24 13 19 22 16 307 307 331 340 347 346 347 343 336 355 350 27 28 18 315 324 323 295 296 298
71 62 53 45 41 36 31 29 25 14 21 16 31 340 300 329 334 345 36 21 8 356 348 346 347 345 10 335 319 331 315 303 297
74 56 47 40 35 35 32 29 25 18 16 19 34 43 51 70 332 349 9 6 359 349 341 335 329 324 317 358 341 335 332 320 308
77 58 49 40 36 35 33 31 27 19 15 21 40 51 60 355 342 341 354 354 348 345 334 326 325 322 319 316 335 331 325 319 309
71 56 47 39 37 36 34 30 23 16 9 12 27 41 1 316 328 338 340 341 347 345 343 338 333 326 321 316 318 322 321 319 314
85 48 41 39 33 26 20 20 20 18 10 10 9 41 50 39 359 358 349 351 356 355 358 355 343 335 329 325 322 322 323 322 319
165 2 8 15 15 11 13 12 9 9 4 355 352 334 22 48 10 4 6 3 359 358 359 357 354 347 339 330 325 324 325 326 323
216 255 320 344 354 352 353 357 0 357 357 356 335 315 298 304 335 333 6 1 348 351 354 353 351 346 338 333 324 323 327 330 328
232 258 299 323 322 333 340 341 343 344 350 353 339 321 309 294 316 309 320 325 336 341 340 338 338 338 330 329 326 324 321 328 328
244 263 285 296 309 318 320 325 330 336 340 344 351 328 316 322 298 294 287 329 320 330 331 332 330 330 328 327 323 320 319 320 326
251 264 280 294 303 310 316 319 323 327 330 331 330 320 307 315 307 303 295 305 304 317 321 323 323 319 321 317 320 323 323 319 325
255 268 282 293 301 307 311 316 318 319 322 322 319 314 308 305 289 297 302 299 302 307 311 316 319 318 310 305 310 314 315 316 319